Location: Brusselsch Zeekanaal
(50.8667°N, 4.3667°E)
Time: 07:08:16
(UTC+00:00)

TIMED - Pass Details

Date: 08 November 2025
Orbit: 582 x 584 km, 74.1° (Epoch: 11 December)

Event Time Altitude Azimuth Distance (km) Brightness Sun altitude
Exits shadow 04:39:59 42° 319° (NW) 844 4.9 -20.1°
Maximum altitude 04:41:19 70° 249° (WSW) 627 4.3 -19.9°
Drops below altitude 10° 04:45:32 10° 166° (SSE) 1,904 7.3 -19.2°
Sets 04:47:45 0° 164° (SSE) 2,799 8.2 -18.9°
